Flag for Malaysia Weather past 2 weeks in Johor Bahru, Malaysia

Now
82 °F

Partly cloudy.


Feels Like: 89 °F
Forecast: 77 / 87 °F
Wind: 3 mph from Southeast

Location: Singapore / Paya Lebar

Current Time: Sep 23, 2014 at 5:16:49 AM

Latest Report: Sep 23, 2014 at 5:00 AM


Visibility: N/A

Pressure: 29.80 "Hg

Humidity: 79%

Dew point: 75 °F

Location of Johor BahruLocation

Historic Weather in Johor Bahru — Graph

°F

Johor Bahru temperature yesterday

Maximum temperature yesterday: 93 °F (at 3:00 PM)
Minimum temperature yesterday: 79 °F (at 7:00 AM)
Average temperature yesterday: 86 °F

Past Weeks' High & Low Weather Summary

 TemperatureHumidityPressure
High93 °F (Sep 19, 3:00 PM)94% (Sep 11, 10:00 PM)29.92 "Hg (Sep 11, 10:00 PM)
Low77 °F (Sep 11, 6:00 PM)38% (Sep 22, 4:00 PM)29.68 "Hg (Sep 16, 4:00 PM)
Average85 °F72%29.82 "Hg
* Reported Sep 7 11:00 PM — Sep 22 11:00 PM, Johor Bahru, Weather by CustomWeather, © 2014

Note: Actual official high and low records may vary slightly from our data, if they occured in-between our weather recording intervals... More about our weather records

Advertising

Johor Bahru weather history for previous 24 hours

 ConditionsComfort  
Time TempWeatherWind HumidityBarometerVisibility
11:00 PM
Sep 22
84 °FPassing clouds.8 mph70%29.86 "HgN/A
10:00 PM84 °FPassing clouds.9 mph70%29.86 "HgN/A
9:00 PM84 °FPassing clouds.8 mph70%29.83 "HgN/A
8:00 PM84 °FPassing clouds.9 mph66%29.80 "HgN/A
7:00 PM86 °FPassing clouds.9 mph62%29.77 "HgN/A
6:00 PM90 °FPartly sunny.12 mph59%29.77 "HgN/A
5:00 PM91 °FPartly sunny.12 mph44%29.77 "HgN/A
4:00 PM91 °FPartly sunny.10 mph38%29.77 "HgN/A
3:00 PM93 °FPartly sunny.9 mph41%29.77 "HgN/A
2:00 PM90 °FPartly sunny.10 mph52%29.83 "HgN/A
1:00 PM90 °FPartly sunny.10 mph55%29.86 "HgN/A
12:00 PM88 °FPartly sunny.12 mph62%29.86 "HgN/A
11:00 AM86 °FPartly sunny.9 mph66%29.89 "HgN/A
10:00 AM84 °FPartly sunny.10 mph74%29.89 "HgN/A
9:00 AM84 °FPartly sunny.7 mph70%29.89 "HgN/A
8:00 AM81 °FPartly sunny.1 mph84%29.89 "Hg3 mi
7:00 AM79 °FPartly sunny.1 mph89%29.86 "Hg3 mi
6:00 AM81 °FPassing clouds.2 mph84%29.86 "Hg4 mi
5:00 AM81 °FPassing clouds.2 mph84%29.86 "Hg5 mi
Weather by CustomWeather, © 2014

See weather overviewHow to use our weather pages